{"data":{"norad_id":66654,"epoch":"2026-05-25T01:20:43.825056Z","epoch_age_seconds":70512,"freshness":"FRESH","line1":"1 66654U 25274E   26145.05606279  .00001389  00000+0  13891-3 0  9995","line2":"2 66654  97.7486  74.5767 0014798  75.2684 285.0174 14.92975203 26767","mean_motion":14.92975203,"eccentricity":0.0014798,"inclination_deg":97.7486,"raan_deg":74.5767,"arg_perigee_deg":75.2684,"mean_anomaly_deg":285.0174,"bstar":0.00013891,"rev_number":2676,"period_min":96.451702419869,"perigee_km":578.35515993475,"apogee_km":598.97410604775,"semimajor_km":6966.8016329913,"source":"CELESTRAK","updated_at":"2026-05-25T13:38:06.380686Z"}}